Time,TemperatureF,DewpointF,PressureIn,WindDirection,WindDirectionDegrees,WindSpeedMPH,WindSpeedGustMPH,Humidity,HourlyPrecipIn,Conditions,Clouds,dailyrainin,SoftwareType,DateUTC
2013-11-16 00:01:00,65.7,64.5,29.90,SE,129,3.5,3.5,96,0.00,RA,,0.00,WeatherDisplay:10.37,2013-11-16 06:01:00,
2013-11-16 00:06:00,65.7,64.5,29.90,SE,129,1.1,1.1,96,0.00,RA,,0.00,WeatherDisplay:10.37,2013-11-16 06:06:00,
2013-11-16 00:11:00,65.7,64.5,29.90,SE,129,1.1,0.0,96,0.00,CLR,,0.00,WeatherDisplay:10.37,2013-11-16 06:11:00,
2013-11-16 00:16:00,65.6,64.4,29.90,SE,129,0.0,0.0,96,0.00,CLR,,0.00,WeatherDisplay:10.37,2013-11-16 06:16:00,
2013-11-16 00:21:00,65.5,64.3,29.90,SE,129,0.0,0.0,96,0.00,CLR,,0.00,WeatherDisplay:10.37,2013-11-16 06:21:00,
2013-11-16 00:26:00,65.4,64.2,29.90,SE,129,0.0,0.0,96,0.00,CLR,,0.00,WeatherDisplay:10.37,2013-11-16 06:26:00,
2013-11-16 00:31:00,65.4,64.2,29.90,SE,129,1.1,1.1,96,0.00,CLR,,0.00,WeatherDisplay:10.37,2013-11-16 06:31:00,
2013-11-16 00:36:00,65.5,64.3,29.90,SE,129,0.0,0.0,96,0.00,CLR,,0.00,WeatherDisplay:10.37,2013-11-16 06:36:00,
2013-11-16 00:41:00,65.5,64.3,29.89,SE,129,0.0,0.0,96,0.00,CLR,,0.00,WeatherDisplay:10.37,2013-11-16 06:41:00,
2013-11-16 00:46:00,65.5,64.3,29.89,SE,129,0.0,0.1,96,0.00,CLR,,0.00,WeatherDisplay:10.37,2013-11-16 06:46:00,
2013-11-16 00:51:00,65.5,64.3,29.89,SE,129,0.0,0.0,96,0.00,CLR,,0.00,WeatherDisplay:10.37,2013-11-16 06:51:00,
2013-11-16 00:56:00,65.5,64.3,29.89,SE,129,0.0,0.0,96,0.00,CLR,,0.00,WeatherDisplay:10.37,2013-11-16 06:56:00,
2013-11-16 01:01:00,65.5,64.3,29.89,SE,129,0.0,0.0,96,0.00,CLR,,0.00,WeatherDisplay:10.37,2013-11-16 07:01:00,
2013-11-16 01:06:00,65.5,64.3,29.89,SE,129,0.0,0.0,96,0.00,CLR,,0.00,WeatherDisplay:10.37,2013-11-16 07:06:00,
2013-11-16 01:11:00,65.5,64.3,29.89,SE,129,0.0,0.0,96,0.00,CLR,,0.00,WeatherDisplay:10.37,2013-11-16 07:11:00,
2013-11-16 01:16:00,65.5,64.3,29.88,SE,129,0.0,0.0,96,0.00,CLR,,0.00,WeatherDisplay:10.37,2013-11-16 07:16:00,
2013-11-16 01:21:00,65.6,64.4,29.88,SE,129,0.0,0.1,96,0.00,CLR,,0.00,WeatherDisplay:10.37,2013-11-16 07:21:00,
2013-11-16 01:26:00,65.6,64.4,29.88,SE,129,0.0,0.0,96,0.00,CLR,,0.00,WeatherDisplay:10.37,2013-11-16 07:26:00,
2013-11-16 01:31:00,65.5,64.3,29.88,SE,129,0.0,0.0,96,0.00,CLR,,0.00,WeatherDisplay:10.37,2013-11-16 07:31:00,
2013-11-16 01:36:00,65.5,64.3,29.88,SE,129,1.1,1.1,96,0.00,CLR,,0.00,WeatherDisplay:10.37,2013-11-16 07:36:00,
2013-11-16 01:41:00,65.5,64.3,29.88,SE,129,1.1,1.1,96,0.00,CLR,,0.00,WeatherDisplay:10.37,2013-11-16 07:41:00,
2013-11-16 01:46:00,65.4,64.2,29.88,SE,129,1.1,0.0,96,0.00,CLR,,0.00,WeatherDisplay:10.37,2013-11-16 07:46:00,
2013-11-16 01:51:00,65.5,64.3,29.88,SE,129,2.3,2.3,96,0.00,CLR,,0.00,WeatherDisplay:10.37,2013-11-16 07:51:00,
2013-11-16 01:56:00,65.5,64.3,29.88,SE,129,0.0,0.2,96,0.00,CLR,,0.00,WeatherDisplay:10.37,2013-11-16 07:56:00,
2013-11-16 02:01:00,65.5,64.3,29.87,SE,129,1.1,1.1,96,0.00,CLR,,0.00,WeatherDisplay:10.37,2013-11-16 08:01:00,
2013-11-16 02:06:00,65.6,64.4,29.87,SE,129,1.1,1.1,96,0.00,CLR,,0.00,WeatherDisplay:10.37,2013-11-16 08:06:00,
2013-11-16 02:11:00,65.6,64.4,29.87,SE,135,2.3,2.3,96,0.00,CLR,,0.00,WeatherDisplay:10.37,2013-11-16 08:11:00,
2013-11-16 02:16:00,65.7,64.5,29.86,SE,139,2.3,2.3,96,0.00,CLR,,0.00,WeatherDisplay:10.37,2013-11-16 08:16:00,
2013-11-16 02:21:00,65.8,64.6,29.86,SSE,155,2.3,2.3,96,0.00,CLR,,0.00,WeatherDisplay:10.37,2013-11-16 08:21:00,
2013-11-16 02:26:00,66.0,64.8,29.86,SSE,160,4.6,4.6,96,0.00,CLR,,0.00,WeatherDisplay:10.37,2013-11-16 08:26:00,
2013-11-16 02:31:00,66.3,65.1,29.86,SE,146,4.6,4.6,96,0.00,CLR,,0.00,WeatherDisplay:10.37,2013-11-16 08:31:00,
2013-11-16 02:36:00,66.4,65.2,29.86,SSE,150,3.5,3.5,96,0.00,CLR,,0.00,WeatherDisplay:10.37,2013-11-16 08:36:00,
2013-11-16 02:41:00,66.4,65.2,29.86,SSE,164,2.3,2.3,96,0.00,CLR,,0.00,WeatherDisplay:10.37,2013-11-16 08:41:00,
2013-11-16 02:46:00,66.4,65.2,29.86,SSE,164,3.5,3.5,96,0.00,CLR,,0.00,WeatherDisplay:10.37,2013-11-16 08:46:00,
2013-11-16 02:51:00,66.4,65.2,29.86,SSE,163,1.1,1.1,96,0.00,CLR,,0.00,WeatherDisplay:10.37,2013-11-16 08:51:00,
2013-11-16 02:56:00,66.4,65.2,29.86,SSE,163,2.3,2.3,96,0.00,CLR,,0.00,WeatherDisplay:10.37,2013-11-16 08:56:00,
2013-11-16 03:01:00,66.3,65.1,29.86,SSE,163,2.3,2.3,96,0.00,CLR,,0.00,WeatherDisplay:10.37,2013-11-16 09:01:00,
2013-11-16 03:06:00,66.2,65.0,29.86,SSE,163,2.3,2.3,96,0.00,CLR,,0.00,WeatherDisplay:10.37,2013-11-16 09:06:00,
2013-11-16 03:11:00,66.2,65.0,29.85,SSE,163,2.3,2.3,96,0.00,CLR,,0.00,WeatherDisplay:10.37,2013-11-16 09:11:00,
2013-11-16 03:16:00,66.1,64.9,29.85,SSE,163,1.1,0.0,96,0.00,CLR,,0.00,WeatherDisplay:10.37,2013-11-16 09:16:00,
2013-11-16 03:21:00,66.1,64.9,29.85,SSE,163,1.1,1.1,96,0.00,CLR,,0.00,WeatherDisplay:10.37,2013-11-16 09:21:00,
2013-11-16 03:26:00,66.1,64.9,29.85,SSE,163,1.1,1.1,96,0.00,CLR,,0.00,WeatherDisplay:10.37,2013-11-16 09:26:00,
2013-11-16 03:31:00,66.2,65.0,29.85,SSE,163,1.1,1.1,96,0.00,CLR,,0.00,WeatherDisplay:10.37,2013-11-16 09:31:00,
2013-11-16 03:36:00,66.2,65.0,29.85,SSE,163,1.1,1.1,96,0.00,CLR,,0.00,WeatherDisplay:10.37,2013-11-16 09:36:00,
2013-11-16 03:41:00,66.2,65.0,29.85,SSE,163,2.3,2.3,96,0.00,CLR,,0.00,WeatherDisplay:10.37,2013-11-16 09:41:00,
2013-11-16 03:46:00,66.2,65.0,29.85,SSE,163,2.3,2.3,96,0.00,CLR,,0.00,WeatherDisplay:10.37,2013-11-16 09:46:00,
2013-11-16 03:51:00,66.3,65.1,29.85,SSE,163,3.5,3.5,96,0.00,CLR,,0.00,WeatherDisplay:10.37,2013-11-16 09:51:00,
2013-11-16 03:56:00,66.4,65.2,29.85,SSE,163,1.1,1.1,96,0.00,CLR,,0.00,WeatherDisplay:10.37,2013-11-16 09:56:00,
2013-11-16 04:01:00,66.5,65.3,29.85,SSE,163,2.3,2.3,96,0.00,CLR,,0.00,WeatherDisplay:10.37,2013-11-16 10:01:00,
2013-11-16 04:06:00,66.5,65.3,29.85,SSE,163,2.3,2.3,96,0.00,CLR,,0.00,WeatherDisplay:10.37,2013-11-16 10:06:00,
2013-11-16 04:11:00,66.6,65.4,29.85,SSE,162,2.3,2.3,96,0.00,CLR,,0.00,WeatherDisplay:10.37,2013-11-16 10:11:00,
2013-11-16 04:16:00,66.6,65.4,29.85,SSE,162,1.1,1.1,96,0.00,CLR,,0.00,WeatherDisplay:10.37,2013-11-16 10:16:00,
2013-11-16 04:21:00,66.6,65.4,29.85,SSE,162,1.1,0.0,96,0.00,CLR,,0.00,WeatherDisplay:10.37,2013-11-16 10:21:00,
2013-11-16 04:26:00,66.5,65.0,29.85,SSE,162,0.0,0.0,95,0.00,CLR,,0.00,WeatherDisplay:10.37,2013-11-16 10:26:00,
2013-11-16 04:31:00,66.4,64.9,29.85,SSE,162,0.0,0.0,95,0.00,CLR,,0.00,WeatherDisplay:10.37,2013-11-16 10:31:00,
2013-11-16 04:36:00,66.4,64.9,29.85,SSE,162,0.0,0.0,95,0.00,CLR,,0.00,WeatherDisplay:10.37,2013-11-16 10:36:00,
2013-11-16 04:41:00,66.0,64.5,29.85,SSE,162,0.0,0.1,95,0.00,CLR,,0.00,WeatherDisplay:10.37,2013-11-16 10:41:00,
2013-11-16 04:46:00,65.9,64.4,29.85,SSE,162,1.1,1.1,95,0.00,CLR,,0.00,WeatherDisplay:10.37,2013-11-16 10:46:00,
2013-11-16 04:51:00,65.9,64.4,29.84,SSE,162,1.1,1.1,95,0.00,CLR,,0.00,WeatherDisplay:10.37,2013-11-16 10:51:00,
2013-11-16 04:56:00,65.7,64.2,29.84,SSE,162,1.1,1.1,95,0.00,CLR,,0.00,WeatherDisplay:10.37,2013-11-16 10:56:00,
2013-11-16 05:01:00,65.5,64.0,29.84,SSE,162,0.0,0.0,95,0.00,CLR,,0.00,WeatherDisplay:10.37,2013-11-16 11:01:00,
2013-11-16 05:06:00,65.4,63.9,29.84,SSE,162,1.1,0.0,95,0.00,CLR,,0.00,WeatherDisplay:10.37,2013-11-16 11:06:00,
2013-11-16 05:11:00,65.3,64.1,29.85,SSE,162,1.1,0.0,96,0.00,CLR,,0.00,WeatherDisplay:10.37,2013-11-16 11:11:00,
2013-11-16 05:16:00,65.4,64.2,29.84,SSE,162,1.1,1.1,96,0.00,CLR,,0.00,WeatherDisplay:10.37,2013-11-16 11:16:00,
2013-11-16 05:21:00,65.5,64.3,29.84,SSE,162,1.1,1.1,96,0.00,CLR,,0.00,WeatherDisplay:10.37,2013-11-16 11:21:00,
2013-11-16 05:27:00,65.5,64.3,29.85,SSE,162,0.0,0.0,96,0.00,CLR,,0.00,WeatherDisplay:10.37,2013-11-16 11:27:00,
2013-11-16 05:31:00,65.6,64.4,29.85,SSE,162,0.0,0.0,96,0.00,CLR,,0.00,WeatherDisplay:10.37,2013-11-16 11:31:00,
2013-11-16 05:37:00,65.7,64.5,29.85,SSE,162,1.1,0.0,96,0.00,CLR,,0.00,WeatherDisplay:10.37,2013-11-16 11:37:00,
2013-11-16 05:42:00,65.8,64.6,29.84,SSE,162,1.1,1.1,96,0.00,CLR,,0.00,WeatherDisplay:10.37,2013-11-16 11:42:00,
2013-11-16 05:46:00,65.7,64.5,29.84,SSE,162,1.1,1.1,96,0.00,CLR,,0.00,WeatherDisplay:10.37,2013-11-16 11:46:00,
2013-11-16 05:51:00,65.6,64.4,29.84,SSE,162,2.3,2.3,96,0.00,CLR,,0.00,WeatherDisplay:10.37,2013-11-16 11:51:00,
2013-11-16 05:57:00,65.5,64.3,29.84,SSE,162,2.3,2.3,96,0.00,CLR,,0.00,WeatherDisplay:10.37,2013-11-16 11:57:00,
2013-11-16 06:02:00,65.5,64.3,29.84,SSE,162,0.0,0.0,96,0.00,CLR,,0.00,WeatherDisplay:10.37,2013-11-16 12:02:00,
2013-11-16 06:07:00,65.6,64.4,29.84,SSE,162,1.1,1.1,96,0.00,CLR,,0.00,WeatherDisplay:10.37,2013-11-16 12:07:00,
2013-11-16 06:12:00,65.6,64.4,29.84,SSE,162,1.1,0.0,96,0.00,CLR,,0.00,WeatherDisplay:10.37,2013-11-16 12:12:00,
2013-11-16 06:17:00,65.5,64.3,29.84,SSE,162,0.0,0.0,96,0.00,CLR,,0.00,WeatherDisplay:10.37,2013-11-16 12:17:00,
2013-11-16 06:22:00,65.4,64.2,29.84,SSE,162,0.0,0.0,96,0.00,CLR,,0.00,WeatherDisplay:10.37,2013-11-16 12:22:00,
2013-11-16 06:27:00,65.4,64.2,29.85,SSE,162,0.0,0.0,96,0.00,CLR,,0.00,WeatherDisplay:10.37,2013-11-16 12:27:00,
2013-11-16 06:31:00,65.6,64.4,29.85,SSE,162,0.0,0.0,96,0.00,CLR,,0.00,WeatherDisplay:10.37,2013-11-16 12:31:00,
2013-11-16 06:36:00,66.1,65.2,29.85,SSE,162,2.3,2.3,97,0.00,CLR,,0.00,WeatherDisplay:10.37,2013-11-16 12:36:00,
2013-11-16 06:42:00,66.4,65.5,29.85,SSE,162,2.3,2.3,97,0.00,CLR,,0.00,WeatherDisplay:10.37,2013-11-16 12:42:00,
2013-11-16 06:47:00,66.6,65.4,29.85,SSE,162,1.1,1.1,96,0.00,CLR,,0.00,WeatherDisplay:10.37,2013-11-16 12:47:00,
2013-11-16 06:52:00,66.7,65.5,29.84,SSE,162,2.3,2.3,96,0.00,CLR,,0.00,WeatherDisplay:10.37,2013-11-16 12:52:00,
2013-11-16 06:56:00,66.7,65.5,29.84,SSE,162,3.5,3.5,96,0.00,CLR,,0.00,WeatherDisplay:10.37,2013-11-16 12:56:00,
2013-11-16 07:01:00,67.0,66.1,29.85,SSE,162,4.6,4.6,97,0.00,CLR,,0.00,WeatherDisplay:10.37,2013-11-16 13:01:00,
2013-11-16 07:07:00,67.5,66.6,29.85,SSE,160,2.3,2.3,97,0.00,CLR,,0.00,WeatherDisplay:10.37,2013-11-16 13:07:00,
2013-11-16 07:12:00,67.8,66.9,29.85,SSE,160,2.3,2.3,97,0.00,CLR,,0.00,WeatherDisplay:10.37,2013-11-16 13:12:00,
2013-11-16 07:17:00,68.0,67.1,29.84,SSE,154,3.5,3.5,97,0.00,CLR,,0.00,WeatherDisplay:10.37,2013-11-16 13:17:00,
2013-11-16 07:22:00,68.1,66.9,29.85,SSE,151,3.5,3.5,96,0.00,CLR,,0.00,WeatherDisplay:10.37,2013-11-16 13:22:00,
2013-11-16 07:27:00,68.2,67.0,29.84,SE,141,4.6,4.6,96,0.00,CLR,,0.00,WeatherDisplay:10.37,2013-11-16 13:27:00,
2013-11-16 07:32:00,68.4,67.5,29.85,SSE,150,4.6,4.6,97,0.00,CLR,,0.00,WeatherDisplay:10.37,2013-11-16 13:32:00,
2013-11-16 07:37:00,68.5,67.6,29.85,SSE,158,3.5,3.5,97,0.00,CLR,,0.00,WeatherDisplay:10.37,2013-11-16 13:37:00,
2013-11-16 07:42:00,68.6,67.7,29.85,SSE,158,2.3,2.3,97,0.00,CLR,,0.00,WeatherDisplay:10.37,2013-11-16 13:42:00,
2013-11-16 07:47:00,68.7,67.8,29.85,SE,141,4.6,4.6,97,0.00,CLR,,0.00,WeatherDisplay:10.37,2013-11-16 13:47:00,
2013-11-16 07:52:00,68.9,68.0,29.85,SE,132,2.3,2.3,97,0.00,CLR,,0.00,WeatherDisplay:10.37,2013-11-16 13:52:00,
2013-11-16 07:57:00,69.1,68.2,29.85,SE,131,4.6,4.6,97,0.00,CLR,,0.00,WeatherDisplay:10.37,2013-11-16 13:57:00,
2013-11-16 08:02:00,69.4,68.5,29.85,SE,143,3.5,3.5,97,0.00,CLR,,0.00,WeatherDisplay:10.37,2013-11-16 14:02:00,
2013-11-16 08:07:00,69.6,68.7,29.85,SE,143,3.5,3.5,97,0.00,CLR,,0.00,WeatherDisplay:10.37,2013-11-16 14:07:00,
2013-11-16 08:12:00,69.9,69.0,29.85,SE,142,2.3,2.3,97,0.00,CLR,,0.00,WeatherDisplay:10.37,2013-11-16 14:12:00,
2013-11-16 08:17:00,70.1,69.2,29.86,SE,142,1.1,1.1,97,0.00,CLR,,0.00,WeatherDisplay:10.37,2013-11-16 14:17:00,
2013-11-16 08:22:00,70.3,69.4,29.86,SE,142,0.0,0.0,97,0.00,CLR,,0.00,WeatherDisplay:10.37,2013-11-16 14:22:00,
2013-11-16 08:27:00,70.5,69.6,29.86,SE,142,1.1,1.1,97,0.00,CLR,,0.00,WeatherDisplay:10.37,2013-11-16 14:27:00,
2013-11-16 08:32:00,70.8,69.9,29.86,SE,142,2.3,2.3,97,0.00,CLR,,0.00,WeatherDisplay:10.37,2013-11-16 14:32:00,
2013-11-16 08:37:00,71.0,70.1,29.86,SE,142,2.3,2.3,97,0.00,CLR,,0.00,WeatherDisplay:10.37,2013-11-16 14:37:00,
2013-11-16 08:42:00,71.2,70.3,29.86,SE,141,4.6,4.6,97,0.00,CLR,,0.00,WeatherDisplay:10.37,2013-11-16 14:42:00,
2013-11-16 08:47:00,71.5,70.6,29.86,ESE,106,3.5,3.5,97,0.00,CLR,,0.00,WeatherDisplay:10.37,2013-11-16 14:47:00,
2013-11-16 08:52:00,71.8,70.9,29.87,SE,135,2.3,2.3,97,0.00,CLR,,0.00,WeatherDisplay:10.37,2013-11-16 14:52:00,
2013-11-16 08:57:00,72.1,71.2,29.87,SE,133,4.6,4.6,97,0.00,CLR,,0.00,WeatherDisplay:10.37,2013-11-16 14:57:00,
2013-11-16 09:02:00,72.4,71.5,29.87,SSE,147,5.8,5.8,97,0.00,CLR,,0.00,WeatherDisplay:10.37,2013-11-16 15:02:00,
2013-11-16 09:07:00,72.7,71.8,29.88,SSE,157,4.6,4.6,97,0.00,CLR,,0.00,WeatherDisplay:10.37,2013-11-16 15:07:00,
2013-11-16 09:12:00,72.8,71.9,29.88,SE,138,1.1,0.0,97,0.00,CLR,,0.00,WeatherDisplay:10.37,2013-11-16 15:12:00,
2013-11-16 09:17:00,72.9,72.0,29.88,SSW,194,2.3,2.3,97,0.00,CLR,,0.00,WeatherDisplay:10.37,2013-11-16 15:17:00,
2013-11-16 09:22:00,72.9,71.7,29.88,SE,140,5.8,5.8,96,0.00,CLR,,0.00,WeatherDisplay:10.37,2013-11-16 15:22:00,
2013-11-16 09:27:00,73.0,71.8,29.88,SSE,149,5.8,5.8,96,0.00,CLR,,0.00,WeatherDisplay:10.37,2013-11-16 15:27:00,
2013-11-16 09:32:00,73.1,71.9,29.88,SE,141,4.6,4.6,96,0.00,CLR,,0.00,WeatherDisplay:10.37,2013-11-16 15:32:00,
2013-11-16 09:37:00,73.2,72.0,29.89,SSE,147,5.8,5.8,96,0.00,CLR,,0.00,WeatherDisplay:10.37,2013-11-16 15:37:00,
2013-11-16 09:42:00,73.3,72.1,29.89,SE,132,2.3,2.3,96,0.00,CLR,,0.00,WeatherDisplay:10.37,2013-11-16 15:42:00,
2013-11-16 09:47:00,73.4,72.2,29.88,SE,131,4.6,4.6,96,0.00,CLR,,0.00,WeatherDisplay:10.37,2013-11-16 15:47:00,
2013-11-16 09:52:00,73.6,72.4,29.88,SE,141,3.5,3.5,96,0.00,CLR,,0.00,WeatherDisplay:10.37,2013-11-16 15:52:00,
2013-11-16 09:57:00,73.8,72.3,29.88,SE,143,4.6,4.6,95,0.00,CLR,,0.00,WeatherDisplay:10.37,2013-11-16 15:57:00,
2013-11-16 10:02:00,73.9,72.4,29.88,SSE,148,5.8,5.8,95,0.00,CLR,,0.00,WeatherDisplay:10.37,2013-11-16 16:02:00,
2013-11-16 10:07:00,74.1,72.6,29.88,SE,145,5.8,5.8,95,0.00,CLR,,0.00,WeatherDisplay:10.37,2013-11-16 16:07:00,
2013-11-16 10:12:00,74.3,72.8,29.88,SSE,156,6.9,6.9,95,0.00,CLR,,0.00,WeatherDisplay:10.37,2013-11-16 16:12:00,
2013-11-16 10:17:00,74.5,72.7,29.88,SSE,159,9.2,9.2,94,0.00,CLR,,0.00,WeatherDisplay:10.37,2013-11-16 16:17:00,
2013-11-16 10:22:00,74.7,72.9,29.88,SE,133,5.8,5.8,94,0.00,CLR,,0.00,WeatherDisplay:10.37,2013-11-16 16:22:00,
2013-11-16 10:27:00,74.9,73.1,29.88,SE,141,6.9,6.9,94,0.00,CLR,,0.00,WeatherDisplay:10.37,2013-11-16 16:27:00,
2013-11-16 10:32:00,75.3,73.5,29.88,SE,139,2.3,2.3,94,0.00,CLR,,0.00,WeatherDisplay:10.37,2013-11-16 16:32:00,
2013-11-16 10:37:00,75.8,73.6,29.88,SSE,150,6.9,6.9,93,0.00,CLR,,0.00,WeatherDisplay:10.37,2013-11-16 16:37:00,
2013-11-16 10:42:00,76.0,73.5,29.88,SSE,147,5.8,5.8,92,0.00,CLR,,0.00,WeatherDisplay:10.37,2013-11-16 16:42:00,
2013-11-16 10:47:00,76.3,73.8,29.88,SSE,148,2.3,2.3,92,0.00,CLR,,0.00,WeatherDisplay:10.37,2013-11-16 16:47:00,
2013-11-16 10:52:00,76.5,73.7,29.88,SSE,149,5.8,5.8,91,0.00,CLR,,0.00,WeatherDisplay:10.37,2013-11-16 16:52:00,
2013-11-16 10:57:00,76.5,73.7,29.87,ESE,123,3.5,3.5,91,0.00,CLR,,0.00,WeatherDisplay:10.37,2013-11-16 16:57:00,
2013-11-16 11:02:00,76.5,73.3,29.87,SSE,159,9.2,9.2,90,0.00,CLR,,0.00,WeatherDisplay:10.37,2013-11-16 17:02:00,
2013-11-16 11:07:00,76.5,73.3,29.87,South,169,4.6,4.6,90,0.00,CLR,,0.00,WeatherDisplay:10.37,2013-11-16 17:07:00,
2013-11-16 11:12:00,76.6,73.4,29.87,SSW,206,5.8,5.8,90,0.00,CLR,,0.00,WeatherDisplay:10.37,2013-11-16 17:12:00,
2013-11-16 11:17:00,76.6,73.4,29.87,South,169,9.2,9.2,90,0.00,CLR,,0.00,WeatherDisplay:10.37,2013-11-16 17:17:00,
2013-11-16 11:22:00,76.6,73.4,29.86,SE,129,10.4,10.4,90,0.00,CLR,,0.00,WeatherDisplay:10.37,2013-11-16 17:22:00,
2013-11-16 11:27:00,76.4,73.2,29.86,SSE,168,3.5,3.5,90,0.00,CLR,,0.00,WeatherDisplay:10.37,2013-11-16 17:27:00,
2013-11-16 11:32:00,76.4,73.2,29.86,SE,140,3.5,3.5,90,0.00,CLR,,0.00,WeatherDisplay:10.37,2013-11-16 17:32:00,
2013-11-16 11:37:00,76.6,73.4,29.86,SSE,148,5.8,5.8,90,0.00,CLR,,0.00,WeatherDisplay:10.37,2013-11-16 17:37:00,
2013-11-16 11:42:00,76.8,73.6,29.85,SE,136,5.8,5.8,90,0.00,CLR,,0.00,WeatherDisplay:10.37,2013-11-16 17:42:00,
2013-11-16 11:47:00,76.8,73.6,29.85,SE,130,6.9,6.9,90,0.00,CLR,,0.00,WeatherDisplay:10.37,2013-11-16 17:47:00,
2013-11-16 11:52:00,76.8,73.6,29.85,SE,145,5.8,5.8,90,0.00,CLR,,0.00,WeatherDisplay:10.37,2013-11-16 17:52:00,
2013-11-16 11:57:00,76.7,73.5,29.85,SE,136,5.8,5.8,90,0.00,CLR,,0.00,WeatherDisplay:10.37,2013-11-16 17:57:00,
2013-11-16 12:02:00,76.8,73.6,29.85,SE,124,5.8,5.8,90,0.00,CLR,,0.00,WeatherDisplay:10.37,2013-11-16 18:02:00,
2013-11-16 12:07:00,76.8,73.6,29.85,SSE,155,10.4,10.4,90,0.00,CLR,,0.00,WeatherDisplay:10.37,2013-11-16 18:07:00,
2013-11-16 12:12:00,77.0,73.8,29.85,SE,140,8.1,8.1,90,0.00,CLR,,0.00,WeatherDisplay:10.37,2013-11-16 18:12:00,
2013-11-16 12:17:00,77.2,73.7,29.85,SE,131,9.2,9.2,89,0.00,CLR,,0.00,WeatherDisplay:10.37,2013-11-16 18:17:00,
2013-11-16 12:22:00,77.0,73.5,29.85,SSE,162,6.9,6.9,89,0.00,CLR,,0.00,WeatherDisplay:10.37,2013-11-16 18:22:00,
2013-11-16 12:27:00,76.9,73.4,29.84,SSE,149,10.4,10.4,89,0.00,CLR,,0.00,WeatherDisplay:10.37,2013-11-16 18:27:00,
2013-11-16 12:32:00,76.9,73.7,29.84,SE,126,6.9,6.9,90,0.00,CLR,,0.00,WeatherDisplay:10.37,2013-11-16 18:32:00,
2013-11-16 12:37:00,76.9,73.7,29.83,SSE,148,12.7,12.7,90,0.00,CLR,,0.00,WeatherDisplay:10.37,2013-11-16 18:37:00,
2013-11-16 12:42:00,76.9,73.7,29.83,SSE,150,9.4,9.4,90,0.00,CLR,,0.00,WeatherDisplay:10.37,2013-11-16 18:42:00,
2013-11-16 12:47:00,76.9,73.7,29.83,SSE,153,8.1,8.1,90,0.00,CLR,,0.00,WeatherDisplay:10.37,2013-11-16 18:47:00,
2013-11-16 12:52:00,76.9,73.4,29.82,SSE,155,10.4,10.4,89,0.00,CLR,,0.00,WeatherDisplay:10.37,2013-11-16 18:52:00,
2013-11-16 12:57:00,76.8,73.3,29.82,SE,127,6.9,6.9,89,0.00,CLR,,0.00,WeatherDisplay:10.37,2013-11-16 18:57:00,
2013-11-16 13:02:00,76.7,73.5,29.82,SE,129,5.8,5.8,90,0.00,CLR,,0.00,WeatherDisplay:10.37,2013-11-16 19:02:00,
2013-11-16 13:07:00,76.5,73.3,29.81,SE,136,5.8,5.8,90,0.00,CLR,,0.00,WeatherDisplay:10.37,2013-11-16 19:07:00,
2013-11-16 13:12:00,76.4,73.2,29.81,SE,140,10.4,10.4,90,0.00,CLR,,0.00,WeatherDisplay:10.37,2013-11-16 19:12:00,
2013-11-16 13:17:00,76.5,73.3,29.81,SSE,160,6.9,6.9,90,0.00,CLR,,0.00,WeatherDisplay:10.37,2013-11-16 19:17:00,
2013-11-16 13:22:00,76.5,73.3,29.80,SSE,159,12.7,12.7,90,0.00,CLR,,0.00,WeatherDisplay:10.37,2013-11-16 19:22:00,
2013-11-16 13:27:00,76.5,73.3,29.80,SE,127,15.0,15.0,90,0.00,CLR,,0.00,WeatherDisplay:10.37,2013-11-16 19:27:00,
2013-11-16 13:32:00,76.5,73.3,29.80,SE,140,11.6,11.6,90,0.00,CLR,,0.00,WeatherDisplay:10.37,2013-11-16 19:32:00,
2013-11-16 13:37:00,76.3,73.1,29.80,ESE,105,11.5,11.5,90,0.00,CLR,,0.00,WeatherDisplay:10.37,2013-11-16 19:37:00,
2013-11-16 13:42:00,76.3,73.1,29.79,SSE,153,9.2,9.2,90,0.00,CLR,,0.00,WeatherDisplay:10.37,2013-11-16 19:42:00,
2013-11-16 13:47:00,76.2,73.1,29.79,SE,141,11.5,11.5,90,0.00,CLR,,0.00,WeatherDisplay:10.37,2013-11-16 19:47:00,
2013-11-16 13:52:00,76.1,73.3,29.79,SSE,151,12.7,12.7,91,0.00,CLR,,0.00,WeatherDisplay:10.37,2013-11-16 19:52:00,
2013-11-16 13:57:00,76.1,73.3,29.79,SE,139,5.8,5.8,91,0.00,CLR,,0.00,WeatherDisplay:10.37,2013-11-16 19:57:00,
2013-11-16 14:02:00,76.0,73.2,29.78,ESE,118,6.9,6.9,91,0.00,CLR,,0.00,WeatherDisplay:10.37,2013-11-16 20:02:00,
2013-11-16 14:07:00,75.8,73.0,29.77,East,94,5.8,5.8,91,0.00,CLR,,0.00,WeatherDisplay:10.37,2013-11-16 20:07:00,
2013-11-16 14:12:00,75.8,73.0,29.77,SE,133,5.8,5.8,91,0.00,CLR,,0.00,WeatherDisplay:10.37,2013-11-16 20:12:00,
2013-11-16 14:17:00,75.8,73.0,29.77,SE,127,6.9,6.9,91,0.00,CLR,,0.00,WeatherDisplay:10.37,2013-11-16 20:17:00,
2013-11-16 14:22:00,75.8,73.0,29.78,SE,135,5.8,5.8,91,0.00,CLR,,0.00,WeatherDisplay:10.37,2013-11-16 20:22:00,
2013-11-16 14:27:00,75.8,73.0,29.78,SE,129,6.9,6.9,91,0.00,CLR,,0.00,WeatherDisplay:10.37,2013-11-16 20:27:00,
2013-11-16 14:32:00,75.7,72.9,29.77,SE,136,6.9,6.9,91,0.00,CLR,,0.00,WeatherDisplay:10.37,2013-11-16 20:32:00,
2013-11-16 14:37:00,75.7,72.9,29.77,SE,129,9.2,9.2,91,0.00,CLR,,0.00,WeatherDisplay:10.37,2013-11-16 20:37:00,
2013-11-16 14:42:00,75.5,73.0,29.78,SSE,155,11.5,11.5,92,0.00,CLR,,0.00,WeatherDisplay:10.37,2013-11-16 20:42:00,
2013-11-16 14:47:00,75.4,72.9,29.78,SSE,156,6.9,6.9,92,0.00,CLR,,0.00,WeatherDisplay:10.37,2013-11-16 20:47:00,
2013-11-16 14:52:00,75.4,72.9,29.77,SE,146,9.2,9.2,92,0.00,CLR,,0.00,WeatherDisplay:10.37,2013-11-16 20:52:00,
2013-11-16 14:57:00,75.3,72.8,29.78,ESE,118,6.9,6.9,92,0.00,CLR,,0.00,WeatherDisplay:10.37,2013-11-16 20:57:00,
2013-11-16 15:02:00,75.3,72.8,29.77,SSE,164,9.2,9.2,92,0.00,CLR,,0.00,WeatherDisplay:10.37,2013-11-16 21:02:00,
2013-11-16 15:07:00,75.3,72.8,29.77,SE,141,12.7,12.7,92,0.00,CLR,,0.00,WeatherDisplay:10.37,2013-11-16 21:07:00,
2013-11-16 15:12:00,75.4,72.9,29.77,SSE,148,10.4,10.4,92,0.00,CLR,,0.00,WeatherDisplay:10.37,2013-11-16 21:12:00,
2013-11-16 15:17:00,75.5,73.0,29.77,SE,131,10.4,10.4,92,0.00,CLR,,0.00,WeatherDisplay:10.37,2013-11-16 21:17:00,
2013-11-16 15:22:00,75.6,72.8,29.77,SSE,159,9.2,9.2,91,0.00,CLR,,0.00,WeatherDisplay:10.37,2013-11-16 21:22:00,
2013-11-16 15:27:00,75.6,72.8,29.77,SE,145,11.5,11.5,91,0.00,CLR,,0.00,WeatherDisplay:10.37,2013-11-16 21:27:00,
2013-11-16 15:32:00,75.7,72.9,29.77,South,175,4.6,4.6,91,0.00,CLR,,0.00,WeatherDisplay:10.37,2013-11-16 21:32:00,
2013-11-16 15:37:00,75.6,72.8,29.77,SE,135,11.5,11.5,91,0.00,CLR,,0.00,WeatherDisplay:10.37,2013-11-16 21:37:00,
2013-11-16 15:42:00,75.5,72.7,29.77,SE,136,8.1,8.1,91,0.00,CLR,,0.00,WeatherDisplay:10.37,2013-11-16 21:42:00,
2013-11-16 15:47:00,75.4,72.6,29.77,SSE,152,11.5,11.5,91,0.00,CLR,,0.00,WeatherDisplay:10.37,2013-11-16 21:47:00,
2013-11-16 15:52:00,75.3,72.5,29.77,SE,129,7.4,7.4,91,0.00,CLR,,0.00,WeatherDisplay:10.37,2013-11-16 21:52:00,
2013-11-16 15:57:00,75.4,72.6,29.76,ESE,115,13.8,13.8,91,0.00,CLR,,0.00,WeatherDisplay:10.37,2013-11-16 21:57:00,
2013-11-16 16:02:00,75.4,72.6,29.77,SE,138,11.5,11.5,91,0.00,CLR,,0.00,WeatherDisplay:10.37,2013-11-16 22:02:00,
2013-11-16 16:07:00,75.4,72.9,29.77,ESE,123,12.6,12.6,92,0.00,CLR,,0.00,WeatherDisplay:10.37,2013-11-16 22:07:00,
2013-11-16 16:12:00,75.4,72.9,29.77,ESE,116,9.2,9.2,92,0.00,CLR,,0.00,WeatherDisplay:10.37,2013-11-16 22:12:00,
2013-11-16 16:17:00,75.2,72.4,29.77,ESE,105,13.8,13.8,91,0.00,CLR,,0.00,WeatherDisplay:10.37,2013-11-16 22:17:00,
2013-11-16 16:22:00,75.1,72.3,29.77,SE,131,11.5,11.5,91,0.00,CLR,,0.00,WeatherDisplay:10.37,2013-11-16 22:22:00,
2013-11-16 16:27:00,75.0,72.5,29.77,SE,134,11.5,11.5,92,0.00,CLR,,0.00,WeatherDisplay:10.37,2013-11-16 22:27:00,
2013-11-16 16:32:00,75.0,72.5,29.77,East,96,10.4,10.4,92,0.00,CLR,,0.00,WeatherDisplay:10.37,2013-11-16 22:32:00,
2013-11-16 16:37:00,74.9,72.4,29.77,SE,129,11.5,11.5,92,0.00,CLR,,0.00,WeatherDisplay:10.37,2013-11-16 22:37:00,
2013-11-16 16:42:00,74.8,72.3,29.77,SE,143,9.2,9.2,92,0.00,CLR,,0.00,WeatherDisplay:10.37,2013-11-16 22:42:00,
2013-11-16 16:47:00,74.7,72.2,29.77,SE,139,5.8,5.8,92,0.00,CLR,,0.00,WeatherDisplay:10.37,2013-11-16 22:47:00,
2013-11-16 16:52:00,74.7,72.2,29.77,SE,136,10.4,10.4,92,0.00,CLR,,0.00,WeatherDisplay:10.37,2013-11-16 22:52:00,
2013-11-16 16:57:00,74.6,72.1,29.77,SE,143,11.5,11.5,92,0.00,CLR,,0.00,WeatherDisplay:10.37,2013-11-16 22:57:00,
2013-11-16 17:03:00,74.5,72.0,29.77,SE,131,6.9,6.9,92,0.00,CLR,,0.00,WeatherDisplay:10.37,2013-11-16 23:03:00,
2013-11-16 17:08:00,74.3,71.8,29.77,ESE,112,10.5,10.5,92,0.00,CLR,,0.00,WeatherDisplay:10.37,2013-11-16 23:08:00,
2013-11-16 17:13:00,74.2,71.7,29.77,SE,126,11.5,11.5,92,0.00,CLR,,0.00,WeatherDisplay:10.37,2013-11-16 23:13:00,
2013-11-16 17:18:00,74.0,71.8,29.77,ESE,115,5.8,5.8,93,0.00,CLR,,0.00,WeatherDisplay:10.37,2013-11-16 23:18:00,
2013-11-16 17:23:00,73.9,71.7,29.77,SE,133,6.9,6.9,93,0.00,CLR,,0.00,WeatherDisplay:10.37,2013-11-16 23:23:00,
2013-11-16 17:28:00,73.9,71.7,29.77,SE,133,6.9,6.9,93,0.00,CLR,,0.00,WeatherDisplay:10.37,2013-11-16 23:28:00,
2013-11-16 17:33:00,73.8,71.6,29.77,SE,135,6.9,6.9,93,0.00,CLR,,0.00,WeatherDisplay:10.37,2013-11-16 23:33:00,
2013-11-16 17:38:00,73.8,71.6,29.77,SE,129,9.2,9.2,93,0.00,CLR,,0.00,WeatherDisplay:10.37,2013-11-16 23:38:00,
2013-11-16 17:43:00,73.8,71.6,29.76,SE,127,11.5,11.5,93,0.00,CLR,,0.00,WeatherDisplay:10.37,2013-11-16 23:43:00,
2013-11-16 17:48:00,73.7,71.5,29.76,SE,129,5.8,5.8,93,0.00,CLR,,0.00,WeatherDisplay:10.37,2013-11-16 23:48:00,
2013-11-16 17:53:00,73.7,71.5,29.76,SE,136,10.4,10.4,93,0.00,CLR,,0.00,WeatherDisplay:10.37,2013-11-16 23:53:00,
2013-11-16 17:58:00,73.7,71.5,29.76,East,92,6.9,6.9,93,0.00,CLR,,0.00,WeatherDisplay:10.37,2013-11-16 23:58:00,
2013-11-16 18:03:00,73.7,71.9,29.76,SE,136,6.9,6.9,94,0.00,CLR,,0.00,WeatherDisplay:10.37,2013-11-17 00:03:00,
2013-11-16 18:08:00,73.6,71.8,29.77,SE,133,5.8,5.8,94,0.00,CLR,,0.00,WeatherDisplay:10.37,2013-11-17 00:08:00,
2013-11-16 18:13:00,73.6,71.8,29.77,ESE,119,6.9,6.9,94,0.00,CLR,,0.00,WeatherDisplay:10.37,2013-11-17 00:13:00,
2013-11-16 18:18:00,73.4,71.6,29.77,SE,131,11.6,11.6,94,0.00,CLR,,0.00,WeatherDisplay:10.37,2013-11-17 00:18:00,
2013-11-16 18:23:00,73.3,71.5,29.77,SSE,160,4.6,4.6,94,0.00,CLR,,0.00,WeatherDisplay:10.37,2013-11-17 00:23:00,
2013-11-16 18:28:00,73.3,71.5,29.77,SE,124,5.8,5.8,94,0.00,CLR,,0.00,WeatherDisplay:10.37,2013-11-17 00:28:00,
2013-11-16 18:33:00,73.4,71.6,29.77,ESE,120,9.2,9.2,94,0.00,CLR,,0.00,WeatherDisplay:10.37,2013-11-17 00:33:00,
2013-11-16 18:38:00,73.4,71.6,29.77,SE,124,11.5,11.5,94,0.00,CLR,,0.00,WeatherDisplay:10.37,2013-11-17 00:38:00,
2013-11-16 18:43:00,73.5,71.7,29.77,ESE,118,9.2,9.2,94,0.00,CLR,,0.00,WeatherDisplay:10.37,2013-11-17 00:43:00,
2013-11-16 18:48:00,73.5,71.7,29.77,ESE,120,11.5,11.5,94,0.00,CLR,,0.00,WeatherDisplay:10.37,2013-11-17 00:48:00,
2013-11-16 18:53:00,73.6,71.8,29.77,SE,140,9.2,9.2,94,0.00,CLR,,0.00,WeatherDisplay:10.37,2013-11-17 00:53:00,
2013-11-16 18:58:00,73.6,71.8,29.77,East,94,11.5,11.5,94,0.00,CLR,,0.00,WeatherDisplay:10.37,2013-11-17 00:58:00,
2013-11-16 19:03:00,73.6,71.8,29.78,SE,127,10.4,10.4,94,0.00,CLR,,0.00,WeatherDisplay:10.37,2013-11-17 01:03:00,
2013-11-16 19:08:00,73.7,71.9,29.78,SE,131,5.8,6.9,94,0.00,CLR,,0.00,WeatherDisplay:10.37,2013-11-17 01:08:00,
2013-11-16 19:13:00,73.6,71.8,29.78,SE,131,6.9,6.9,94,0.00,CLR,,0.00,WeatherDisplay:10.37,2013-11-17 01:13:00,
2013-11-16 19:18:00,73.5,71.7,29.78,South,171,10.4,10.4,94,0.00,CLR,,0.00,WeatherDisplay:10.37,2013-11-17 01:18:00,
2013-11-16 19:23:00,73.5,71.7,29.78,SSE,158,10.4,10.4,94,0.00,CLR,,0.00,WeatherDisplay:10.37,2013-11-17 01:23:00,
2013-11-16 19:28:00,73.4,71.9,29.78,SE,124,5.8,5.8,95,0.00,CLR,,0.00,WeatherDisplay:10.37,2013-11-17 01:28:00,
2013-11-16 19:33:00,73.4,71.9,29.79,SE,126,13.8,13.8,95,0.00,CLR,,0.00,WeatherDisplay:10.37,2013-11-17 01:33:00,
2013-11-16 19:38:00,73.4,71.9,29.79,SE,144,12.7,12.7,95,0.00,CLR,,0.00,WeatherDisplay:10.37,2013-11-17 01:38:00,
2013-11-16 19:43:00,73.4,71.9,29.79,SE,136,9.2,9.2,95,0.00,CLR,,0.00,WeatherDisplay:10.37,2013-11-17 01:43:00,
2013-11-16 19:48:00,73.4,71.9,29.79,SE,143,11.5,11.5,95,0.00,CLR,,0.00,WeatherDisplay:10.37,2013-11-17 01:48:00,
2013-11-16 19:53:00,73.4,71.9,29.79,SE,128,15.0,15.0,95,0.00,CLR,,0.00,WeatherDisplay:10.37,2013-11-17 01:53:00,
2013-11-16 19:58:00,73.3,71.8,29.79,SE,139,10.4,10.4,95,0.00,CLR,,0.00,WeatherDisplay:10.37,2013-11-17 01:58:00,
2013-11-16 20:03:00,73.3,71.8,29.79,SE,131,8.1,8.1,95,0.00,CLR,,0.00,WeatherDisplay:10.37,2013-11-17 02:03:00,
2013-11-16 20:08:00,73.3,71.8,29.79,SE,143,11.5,11.5,95,0.00,CLR,,0.00,WeatherDisplay:10.37,2013-11-17 02:08:00,
2013-11-16 20:13:00,73.4,71.9,29.79,SSE,162,8.1,8.1,95,0.00,CLR,,0.00,WeatherDisplay:10.37,2013-11-17 02:13:00,
2013-11-16 20:18:00,73.4,71.9,29.80,SSE,163,10.4,10.4,95,0.00,CLR,,0.00,WeatherDisplay:10.37,2013-11-17 02:18:00,
2013-11-16 20:23:00,73.4,71.9,29.80,SE,132,11.5,11.5,95,0.00,CLR,,0.00,WeatherDisplay:10.37,2013-11-17 02:23:00,
2013-11-16 20:28:00,73.3,71.8,29.80,SE,136,14.7,14.7,95,0.00,CLR,,0.00,WeatherDisplay:10.37,2013-11-17 02:28:00,
2013-11-16 20:33:00,73.3,71.8,29.80,SSE,167,15.0,15.0,95,0.00,CLR,,0.00,WeatherDisplay:10.37,2013-11-17 02:33:00,
2013-11-16 20:38:00,73.4,71.9,29.80,ESE,103,9.2,9.2,95,0.00,CLR,,0.00,WeatherDisplay:10.37,2013-11-17 02:38:00,
2013-11-16 20:43:00,73.4,71.9,29.80,SE,131,10.4,10.4,95,0.00,CLR,,0.00,WeatherDisplay:10.37,2013-11-17 02:43:00,
2013-11-16 20:48:00,73.5,72.0,29.80,ESE,103,16.1,16.1,95,0.00,CLR,,0.00,WeatherDisplay:10.37,2013-11-17 02:48:00,
2013-11-16 20:53:00,73.5,72.0,29.80,SE,134,13.8,13.8,95,0.00,CLR,,0.00,WeatherDisplay:10.37,2013-11-17 02:53:00,
2013-11-16 20:58:00,73.5,72.0,29.80,SE,139,10.4,10.4,95,0.00,CLR,,0.00,WeatherDisplay:10.37,2013-11-17 02:58:00,
2013-11-16 21:03:00,73.5,72.0,29.80,SSE,150,12.7,12.7,95,0.00,CLR,,0.00,WeatherDisplay:10.37,2013-11-17 03:03:00,
2013-11-16 21:08:00,73.4,71.9,29.80,SSE,158,10.5,10.5,95,0.00,CLR,,0.00,WeatherDisplay:10.37,2013-11-17 03:08:00,
2013-11-16 21:13:00,73.4,71.9,29.80,ESE,120,6.9,6.9,95,0.00,CLR,,0.00,WeatherDisplay:10.37,2013-11-17 03:13:00,
2013-11-16 21:18:00,73.4,71.9,29.80,SE,146,6.9,6.9,95,0.00,CLR,,0.00,WeatherDisplay:10.37,2013-11-17 03:18:00,
2013-11-16 21:23:00,73.4,71.9,29.80,SSE,163,6.9,6.9,95,0.00,CLR,,0.00,WeatherDisplay:10.37,2013-11-17 03:23:00,
2013-11-16 21:28:00,73.4,71.9,29.80,South,180,12.7,12.7,95,0.00,CLR,,0.00,WeatherDisplay:10.37,2013-11-17 03:28:00,
2013-11-16 21:33:00,73.5,72.0,29.80,South,177,10.4,10.4,95,0.00,CLR,,0.00,WeatherDisplay:10.37,2013-11-17 03:33:00,
2013-11-16 21:38:00,73.5,72.0,29.80,SSE,150,13.8,13.8,95,0.00,CLR,,0.00,WeatherDisplay:10.37,2013-11-17 03:38:00,
2013-11-16 21:43:00,73.4,71.9,29.80,SSE,157,12.7,12.7,95,0.00,CLR,,0.00,WeatherDisplay:10.37,2013-11-17 03:43:00,
2013-11-16 21:48:00,73.3,71.8,29.80,SE,146,6.9,6.9,95,0.00,CLR,,0.00,WeatherDisplay:10.37,2013-11-17 03:48:00,
2013-11-16 21:53:00,73.2,71.7,29.80,SE,141,12.7,12.7,95,0.00,CLR,,0.00,WeatherDisplay:10.37,2013-11-17 03:53:00,
2013-11-16 21:58:00,73.3,71.8,29.80,South,174,11.5,11.5,95,0.00,CLR,,0.00,WeatherDisplay:10.37,2013-11-17 03:58:00,
2013-11-16 22:03:00,73.2,71.7,29.79,SE,130,9.2,9.2,95,0.00,CLR,,0.00,WeatherDisplay:10.37,2013-11-17 04:03:00,
2013-11-16 22:08:00,73.2,71.7,29.79,SE,145,9.2,9.2,95,0.00,CLR,,0.00,WeatherDisplay:10.37,2013-11-17 04:08:00,
2013-11-16 22:13:00,73.3,71.8,29.79,SSE,157,11.5,11.5,95,0.00,CLR,,0.00,WeatherDisplay:10.37,2013-11-17 04:13:00,
2013-11-16 22:18:00,73.3,71.8,29.79,ESE,122,9.2,9.2,95,0.00,CLR,,0.00,WeatherDisplay:10.37,2013-11-17 04:18:00,
2013-11-16 22:23:00,73.3,71.8,29.79,SSE,148,13.8,13.8,95,0.00,CLR,,0.00,WeatherDisplay:10.37,2013-11-17 04:23:00,
2013-11-16 22:28:00,73.2,71.7,29.79,SE,145,11.5,11.5,95,0.00,CLR,,0.00,WeatherDisplay:10.37,2013-11-17 04:28:00,
2013-11-16 22:33:00,73.2,71.7,29.79,SE,126,6.9,6.9,95,0.00,CLR,,0.00,WeatherDisplay:10.37,2013-11-17 04:33:00,
2013-11-16 22:38:00,73.2,71.7,29.79,South,172,12.7,12.7,95,0.00,CLR,,0.00,WeatherDisplay:10.37,2013-11-17 04:38:00,
2013-11-16 22:43:00,73.2,71.7,29.79,SSW,196,13.8,13.8,95,0.00,CLR,,0.00,WeatherDisplay:10.37,2013-11-17 04:43:00,
2013-11-16 22:48:00,73.2,71.7,29.80,SW,222,11.5,11.5,95,0.00,CLR,,0.00,WeatherDisplay:10.37,2013-11-17 04:48:00,
2013-11-16 22:53:00,73.3,71.8,29.80,South,186,11.5,11.5,95,0.00,CLR,,0.00,WeatherDisplay:10.37,2013-11-17 04:53:00,
2013-11-16 22:58:00,73.3,71.8,29.80,SSE,161,8.1,8.1,95,0.00,CLR,,0.00,WeatherDisplay:10.37,2013-11-17 04:58:00,
2013-11-16 23:01:00,73.3,71.8,29.80,South,171,5.8,5.8,95,0.00,CLR,,0.00,WeatherDisplay:10.37,2013-11-17 05:01:00,
2013-11-16 23:03:00,73.3,71.8,29.80,SE,141,4.6,4.6,95,0.00,CLR,,0.00,WeatherDisplay:10.37,2013-11-17 05:03:00,
2013-11-16 23:08:00,73.2,71.7,29.80,SSW,198,4.6,4.6,95,0.00,CLR,,0.00,WeatherDisplay:10.37,2013-11-17 05:08:00,
2013-11-16 23:13:00,73.2,71.7,29.80,SSW,195,3.5,3.5,95,0.00,CLR,,0.00,WeatherDisplay:10.37,2013-11-17 05:13:00,
2013-11-16 23:18:00,73.2,71.7,29.80,SSW,207,6.9,6.9,95,0.00,CLR,,0.00,WeatherDisplay:10.37,2013-11-17 05:18:00,
2013-11-16 23:23:00,73.1,71.6,29.80,SSW,209,4.6,4.6,95,0.00,CLR,,0.00,WeatherDisplay:10.37,2013-11-17 05:23:00,
2013-11-16 23:28:00,73.1,71.6,29.81,SSW,194,9.2,9.2,95,0.00,CLR,,0.00,WeatherDisplay:10.37,2013-11-17 05:28:00,
2013-11-16 23:33:00,73.1,71.6,29.80,SE,139,9.2,9.2,95,0.00,CLR,,0.00,WeatherDisplay:10.37,2013-11-17 05:33:00,
2013-11-16 23:38:00,73.0,71.5,29.80,South,179,11.5,11.5,95,0.00,CLR,,0.00,WeatherDisplay:10.37,2013-11-17 05:38:00,
2013-11-16 23:43:00,73.0,71.5,29.79,South,185,11.5,11.5,95,0.00,CLR,,0.00,WeatherDisplay:10.37,2013-11-17 05:43:00,
2013-11-16 23:48:00,72.8,71.3,29.79,SSE,156,12.7,12.7,95,0.00,CLR,,0.00,WeatherDisplay:10.37,2013-11-17 05:48:00,
2013-11-16 23:53:00,72.7,71.2,29.79,South,171,9.2,9.2,95,0.00,CLR,,0.00,WeatherDisplay:10.37,2013-11-17 05:53:00,
2013-11-16 23:58:00,72.7,71.2,29.80,SE,133,5.8,5.8,95,0.00,CLR,,0.00,WeatherDisplay:10.37,2013-11-17 05:58:00,